Date,TemperatureHighF,TemperatureAvgF,TemperatureLowF,DewpointHighF,DewpointAvgF,DewpointLowF,HumidityHigh,HumidityAvg,HumidityLow,PressureMaxIn,PressureMinIn,WindSpeedMaxMPH,WindSpeedAvgMPH,GustSpeedMaxMPH,PrecipitationSumIn
2013-1-1,24,20,13,-100,-100,-100,0,0,100,0.00,40.00,0,-999,0,0.00
2013-1-2,31,20,10,-100,-100,-100,0,0,100,0.00,40.00,0,-999,0,0.00
2013-1-3,34,24,17,-100,-100,-100,0,0,100,0.00,40.00,0,-999,0,0.00
2013-1-4,42,28,14,-100,-100,-100,0,0,100,0.00,40.00,0,-999,0,0.00
2013-1-5,45,36,26,-100,-100,-100,0,0,100,0.00,40.00,0,-999,0,0.00
2013-1-6,49,33,20,-100,-100,-100,0,0,100,0.00,40.00,0,-999,0,0.00
2013-1-7,53,35,25,-100,-100,-100,0,0,100,0.00,40.00,0,-999,0,0.00
2013-1-8,52,38,29,-100,-100,-100,0,0,100,0.00,40.00,0,-999,0,0.00
2013-1-9,52,38,26,-100,-100,-100,0,0,100,0.00,40.00,0,-999,0,0.00
2013-1-10,48,44,40,-100,-100,-100,0,0,100,0.00,40.00,0,-999,0,0.00
2013-1-11,58,51,43,-100,-100,-100,0,0,100,0.00,40.00,0,-999,0,0.00
2013-1-12,35,26,20,-100,-100,-100,0,0,100,0.00,40.00,0,-999,0,0.00
2013-1-13,25,17,10,-100,-100,-100,0,0,100,0.00,40.00,0,-999,0,0.00
2013-1-14,31,18,11,-100,-100,-100,0,0,100,0.00,40.00,0,-999,0,0.00
2013-1-15,31,20,15,-100,-100,-100,0,0,100,0.00,40.00,0,-999,0,0.00
2013-1-16,48,28,15,-100,-100,-100,0,0,100,0.00,40.00,0,-999,0,0.00
2013-1-17,53,39,26,-100,-100,-100,0,0,100,0.00,40.00,0,-999,0,0.00
2013-1-18,56,39,27,-100,-100,-100,0,0,100,0.00,40.00,0,-999,0,0.00
2013-1-19,62,47,32,-100,-100,-100,0,0,100,0.00,40.00,0,-999,0,0.00
2013-1-20,49,36,27,-100,-100,-100,0,0,100,0.00,40.00,0,-999,0,0.00
2013-1-21,33,23,16,-100,-100,-100,0,0,100,0.00,40.00,0,-999,0,0.00
2013-1-22,44,23,14,-100,-100,-100,0,0,100,0.00,40.00,0,-999,0,0.00
2013-1-23,55,35,18,-100,-100,-100,0,0,100,0.00,40.00,0,-999,0,0.00
2013-1-24,28,23,20,-100,-100,-100,0,0,100,0.00,40.00,0,-999,0,0.00
2013-1-25,46,32,20,-100,-100,-100,0,0,100,0.00,40.00,0,-999,0,0.00
2013-1-26,57,43,30,-100,-100,-100,0,0,100,0.00,40.00,0,-999,0,0.00
2013-1-27,65,51,42,-100,-100,-100,0,0,100,0.00,40.00,0,-999,0,0.00
2013-1-28,71,60,51,-100,-100,-100,0,0,100,0.00,40.00,0,-999,0,0.00
2013-1-29,64,44,35,-100,-100,-100,0,0,100,0.00,40.00,0,-999,0,0.00
2013-1-30,32,27,18,-100,-100,-100,0,0,100,0.00,40.00,0,-999,0,0.00
2013-1-31,27,22,14,-100,-100,-100,0,0,100,0.00,40.00,0,-999,0,0.00